OE6JWD-11 Weather Reports


time (UTC)temp
F
wind
direction
speed
knots
gust
knots
rain 1hr
in
rain 24hr
in
rain mn
in
humidity
%
barometer
mb
20210723145004 71 0 0.0 3.5 0.00 0.00 0.00 79 1018.0
20210723144004 73 0 0.0 2.6 0.00 0.00 0.00 76 1017.8
20210723143004 76 189 1.7 3.5 0.00 0.00 0.00 73 1017.6
20210723142004 78 213 0.9 6.1 0.00 0.00 0.00 61 1017.7
20210723141004 76 204 3.5 5.2 0.00 0.00 0.00 62 1017.8
20210723140003 74 245 1.7 7.0 0.00 0.00 0.00 67 1017.4
20210723135005 72 215 0.9 6.1 0.00 0.00 0.00 71 1017.7
20210723134003 71 201 2.6 7.0 0.00 0.00 0.00 73 1017.3
20210723133003 72 188 1.7 7.0 0.00 0.00 0.00 71 1017.2
20210723132003 73 196 2.6 8.7 0.00 0.00 0.00 68 1017.5
20210723131004 73 240 1.7 11.3 0.00 0.00 0.00 65 1017.6
20210723130004 73 200 6.1 11.3 0.00 0.00 0.00 65 1017.2
20210723125004 76 234 4.3 13.9 0.00 0.00 0.00 62 1017.3
20210723124004 76 174 4.3 13.9 0.00 0.00 0.00 62 1017.3
20210723123005 78 209 5.2 13.9 0.00 0.00 0.00 58 1017.6
20210723122004 79 208 3.5 7.0 0.00 0.00 0.00 56 1017.4
20210723121003 78 185 0.9 7.0 0.00 0.00 0.00 52 1017.6
20210723120003 77 178 1.7 7.8 0.00 0.00 0.00 57 1018.1
20210723115003 76 0 0.0 3.5 0.00 0.00 0.00 58 1017.7
20210723114004 78 163 0.9 5.2 0.00 0.00 0.00 53 1017.8
20210723113004 77 209 0.9 5.2 0.00 0.00 0.00 59 1017.7
20210723112004 78 212 1.7 4.3 0.00 0.00 0.00 61 1017.6
20210723111004 80 195 1.7 4.3 0.00 0.00 0.00 58 1017.6
20210723110004 78 0 0.0 4.3 0.00 0.00 0.00 56 1017.9
20210723105003 79 183 2.6 6.1 0.00 0.00 0.00 53 1018.1
20210723104003 78 214 1.7 4.3 0.00 0.00 0.00 58 1018.2
20210723103004 77 206 1.7 5.2 0.00 0.00 0.00 56 1018.1
20210723102004 77 198 0.9 4.3 0.00 0.00 0.00 53 1018.4
20210723101004 77 181 1.7 4.3 0.00 0.00 0.00 52 1018.5
20210723100004 76 198 1.7 6.1 0.00 0.00 0.00 60 1018.7
20210723095004 76 0 0.0 5.2 0.00 0.00 0.00 56 1018.8
20210723094004 75 205 1.7 5.2 0.00 0.00 0.00 59 1018.8
20210723093004 75 171 2.6 5.2 0.00 0.00 0.00 56 1019.0
20210723092003 75 0 0.0 2.6 0.00 0.00 0.00 61 1019.0
20210723091003 74 0 0.0 5.2 0.00 0.00 0.00 56 1019.1
20210723090003 73 0 0.0 4.3 0.00 0.00 0.00 57 1019.1
20210723085004 74 206 1.7 7.0 0.00 0.00 0.00 57 1019.3
20210723084004 73 0 0.0 3.5 0.00 0.00 0.00 55 1019.3
20210723083004 72 0 0.0 3.5 0.00 0.00 0.00 61 1019.0
20210723082003 73 212 1.7 3.5 0.00 0.00 0.00 55 1019.2
20210723081004 72 177 0.9 4.3 0.00 0.00 0.00 55 1019.2
20210723080003 72 0 0.0 4.3 0.00 0.00 0.00 54 1018.9
20210723075004 71 0 0.0 3.5 0.00 0.00 0.00 56 1019.1
20210723074004 71 177 0.9 1.7 0.00 0.00 0.00 56 1019.1
20210723073004 71 0 0.0 3.5 0.00 0.00 0.00 55 1019.3
20210723072004 72 0 0.0 1.7 0.00 0.00 0.00 55 1019.0
20210723071004 71 0 0.0 2.6 0.00 0.00 0.00 57 1019.2
20210723070004 70 0 0.0 1.7 0.00 0.00 0.00 62 1019.2
20210723065003 69 0 0.0 2.6 0.00 0.00 0.00 66 1019.2
20210723064003 67 0 0.0 1.7 0.00 0.00 0.00 65 1019.1
20210723063003 67 182 0.9 1.7 0.00 0.00 0.00 66 1019.1
20210723062004 67 0 0.0 1.7 0.00 0.00 0.00 69 1019.2
20210723061004 66 0 0.0 0.0 0.00 0.00 0.00 67 1019.3
20210723060004 65 0 0.0 0.0 0.00 0.00 0.00 67 1019.2
20210723055004 64 0 0.0 0.0 0.00 0.00 0.00 69 1019.0
20210723054003 64 0 0.0 0.0 0.00 0.00 0.00 72 1019.1
20210723053003 65 0 0.0 0.0 0.00 0.00 0.00 71 1019.0
20210723052004 65 0 0.0 0.0 0.00 0.00 0.00 69 1019.2
20210723051003 64 0 0.0 0.0 0.00 0.00 0.00 70 1019.2
20210723050004 64 0 0.0 0.0 0.00 0.00 0.00 69 1019.3
20210723045004 64 0 0.0 0.0 0.00 0.00 0.00 67 1019.3
20210723044004 64 0 0.0 0.0 0.00 0.00 0.00 67 1019.2
20210723043004 64 0 0.0 0.0 0.00 0.00 0.00 66 1019.1
20210723042003 63 0 0.0 0.0 0.00 0.00 0.00 67 1019.2
20210723041004 63 0 0.0 0.0 0.00 0.00 0.00 67 1019.0
20210723040004 63 0 0.0 0.0 0.00 0.00 0.00 66 1019.1
20210723035004 63 0 0.0 0.0 0.00 0.00 0.00 67 1019.0
20210723034004 63 0 0.0 0.0 0.00 0.00 0.00 66 1019.1
20210723033004 64 0 0.0 0.0 0.00 0.00 0.00 66 1019.3
20210723032003 64 0 0.0 0.0 0.00 0.00 0.00 65 1019.3
20210723031004 64 0 0.0 0.0 0.00 0.00 0.00 64 1019.3
20210723030003 64 0 0.0 0.0 0.00 0.00 0.00 64 1019.3
20210723025003 64 0 0.0 0.0 0.00 0.00 0.00 63 1019.5
20210723024003 65 0 0.0 0.0 0.00 0.00 0.00 62 1019.3
20210723023004 65 0 0.0 0.0 0.00 0.00 0.00 61 1019.5
20210723022004 65 0 0.0 0.0 0.00 0.00 0.00 61 1019.1
20210723021004 65 0 0.0 0.0 0.00 0.00 0.00 61 1019.4
20210723020004 65 0 0.0 0.0 0.00 0.00 0.00 61 1019.5
20210723015004 65 0 0.0 0.0 0.00 0.00 0.00 61 1019.5
20210723014004 66 0 0.0 0.0 0.00 0.00 0.00 61 1019.5
20210723013003 66 0 0.0 0.0 0.00 0.00 0.00 60 1019.6
20210723012003 65 0 0.0 0.0 0.00 0.00 0.00 60 1019.7
20210723011003 65 0 0.0 0.0 0.00 0.00 0.00 63 1019.9
20210723010003 65 0 0.0 0.0 0.00 0.00 0.00 64 1019.7
20210723005004 66 0 0.0 0.0 0.00 0.00 0.00 61 1019.7
20210723004004 66 0 0.0 0.0 0.00 0.00 0.00 61 1019.8
20210723003004 66 0 0.0 0.0 0.00 0.00 0.00 61 1019.8
20210723002004 66 0 0.0 0.0 0.00 0.00 0.00 62 1019.8
20210723001003 65 0 0.0 0.0 0.00 0.00 0.00 63 1019.9
20210723000004 66 0 0.0 1.7 0.00 0.00 0.00 62 1020.1
20210722235003 66 0 0.0 1.7 0.00 0.00 0.00 65 1020.2
20210722234004 66 0 0.0 1.7 0.00 0.00 0.00 65 1020.2
20210722233004 66 0 0.0 1.7 0.00 0.00 0.00 64 1020.1
20210722232004 66 0 0.0 0.0 0.00 0.00 0.00 65 1020.3
20210722231004 66 0 0.0 0.0 0.00 0.00 0.00 66 1020.0
20210722230004 65 0 0.0 0.0 0.00 0.00 0.00 66 1020.2
20210722225003 65 0 0.0 0.0 0.00 0.00 0.00 65 1020.0
20210722224004 65 0 0.0 0.0 0.00 0.00 0.00 67 1020.0
20210722223004 65 0 0.0 0.0 0.00 0.00 0.00 67 1020.2
20210722222004 65 0 0.0 0.0 0.00 0.00 0.00 70 1020.1
20210722221003 65 0 0.0 0.0 0.00 0.00 0.00 71 1020.2
20210722220003 65 0 0.0 0.0 0.00 0.00 0.00 70 1020.0
20210722215003 65 0 0.0 0.0 0.00 0.00 0.00 71 1020.0
20210722214004 66 0 0.0 0.0 0.00 0.00 0.00 70 1020.3
20210722213004 66 0 0.0 0.0 0.00 0.00 0.00 70 1020.2
20210722212003 66 0 0.0 0.0 0.00 0.00 0.00 71 1020.1
20210722211003 66 0 0.0 0.0 0.00 0.00 0.00 72 1020.1
20210722210003 66 0 0.0 0.0 0.00 0.00 0.00 72 1020.3
20210722205003 66 0 0.0 0.0 0.00 0.00 0.00 72 1020.2
20210722204003 66 0 0.0 0.0 0.00 0.00 0.00 72 1020.3
20210722203004 66 0 0.0 0.0 0.00 0.00 0.00 72 1020.2
20210722202004 66 0 0.0 0.0 0.00 0.00 0.00 72 1020.2
20210722201004 66 0 0.0 0.0 0.00 0.00 0.00 72 1020.0
20210722200004 67 0 0.0 0.0 0.00 0.00 0.00 72 1020.2
20210722195003 67 0 0.0 0.0 0.00 0.00 0.00 73 1020.0
20210722194003 67 0 0.0 0.0 0.00 0.00 0.00 74 1020.0
20210722193003 68 0 0.0 0.0 0.00 0.00 0.00 72 1020.0
20210722192003 68 0 0.0 0.0 0.00 0.00 0.00 71 1019.8
20210722191003 69 0 0.0 0.0 0.00 0.00 0.00 67 1019.6
20210722190004 70 0 0.0 0.0 0.00 0.00 0.00 66 1019.8
20210722185004 70 0 0.0 0.0 0.00 0.00 0.00 66 1019.7
20210722184004 70 0 0.0 0.0 0.00 0.00 0.00 67 1019.7
20210722183003 71 0 0.0 0.0 0.00 0.00 0.00 66 1019.6
20210722182005 71 0 0.0 0.0 0.00 0.00 0.00 66 1019.6
20210722181003 71 0 0.0 0.0 0.00 0.00 0.00 65 1019.8
20210722180004 72 0 0.0 0.0 0.00 0.00 0.00 63 1019.5
20210722175004 72 0 0.0 1.7 0.00 0.00 0.00 62 1019.7
20210722174003 72 0 0.0 1.7 0.00 0.00 0.00 64 1019.6
20210722173005 72 0 0.0 1.7 0.00 0.00 0.00 63 1019.6
20210722172003 73 179 0.9 2.6 0.00 0.00 0.00 62 1019.6
20210722171003 73 228 0.9 2.6 0.00 0.00 0.00 61 1019.7
20210722170004 74 0 0.0 5.2 0.00 0.00 0.00 61 1019.3
20210722165004 75 204 0.9 3.5 0.00 0.00 0.00 58 1019.6
20210722164004 77 164 1.7 2.6 0.00 0.00 0.00 53 1019.4
20210722163004 77 0 0.0 4.3 0.00 0.00 0.00 54 1019.3
20210722162003 78 205 0.9 4.3 0.00 0.00 0.00 53 1019.3
20210722161003 76 0 0.0 0.9 0.00 0.00 0.00 57 1019.3
20210722160003 76 0 0.0 2.6 0.00 0.00 0.00 55 1019.5
20210722155003 77 189 0.9 2.6 0.00 0.00 0.00 53 1019.6
20210722154003 78 185 0.9 4.3 0.00 0.00 0.00 53 1019.7
20210722153004 79 192 0.9 5.2 0.00 0.00 0.00 51 1019.9
20210722152004 79 0 0.0 3.5 0.00 0.00 0.00 53 1019.7
20210722151004 78 174 1.7 4.3 0.00 0.00 0.00 58 1019.8
20210722150004 76 196 1.7 3.5 0.00 0.00 0.00 53 1019.6